Previsão horária em Allinges

Hoje, 16 Junho, Quarta-feira

Tempo Temperatura Precipitação Vento Pressão Humidade
00:00 +20°C° 0 mm 1 m/s 713 mmHg 75%
01:00 +19°C° 0 mm 1 m/s 713 mmHg 77%
02:00 +19°C° 0 mm 1 m/s 713 mmHg 78%
03:00 +19°C° 0 mm 1 m/s 712 mmHg 80%
04:00 +20°C° 0 mm 1 m/s 712 mmHg 78%
05:00 +19°C° 0 mm 0 m/s 712 mmHg 75%
06:00 +20°C° 0 mm 0 m/s 712 mmHg 73%
07:00 +22°C° 0 mm 0 m/s 712 mmHg 68%
08:00 +26°C° 0 mm 1 m/s 712 mmHg 62%
09:00 +27°C° 0 mm 1 m/s 712 mmHg 57%
10:00 +28°C° 0 mm 1 m/s 712 mmHg 52%
11:00 +29°C° 0 mm 1 m/s 712 mmHg 48%
12:00 +30°C° 0 mm 1 m/s 712 mmHg 43%
13:00 +30°C° 0 mm 1 m/s 712 mmHg 42%
14:00 +30°C° 0 mm 1 m/s 711 mmHg 41%
15:00 +30°C° 0 mm 1 m/s 711 mmHg 40%
16:00 +29°C° 0 mm 1 m/s 711 mmHg 48%
17:00 +28°C° 0 mm 1 m/s 711 mmHg 57%
18:00 +25°C° 0 mm 0 m/s 711 mmHg 65%
19:00 +25°C° 0 mm 1 m/s 711 mmHg 66%
20:00 +23°C° 0 mm 1 m/s 711 mmHg 66%
21:00 +21°C° 0 mm 1 m/s 711 mmHg 67%
22:00 +21°C° 0 mm 1 m/s 711 mmHg 67%
23:00 +21°C° 0 mm 1 m/s 711 mmHg 67%

Amanhã, 17 Junho, Quinta-feira

Tempo Temperatura Precipitação Vento Pressão Humidade
00:00 +20°C° 0 mm 1 m/s 711 mmHg 68%
01:00 +20°C° 0 mm 1 m/s 711 mmHg 71%
02:00 +19°C° 0 mm 1 m/s 711 mmHg 73%
03:00 +19°C° 0 mm 1 m/s 711 mmHg 76%
04:00 +20°C° 0 mm 1 m/s 711 mmHg 75%
05:00 +22°C° 0 mm 1 m/s 712 mmHg 73%
06:00 +21°C° 0 mm 0 m/s 712 mmHg 72%
07:00 +22°C° 0 mm 0 m/s 712 mmHg 67%
08:00 +24°C° 0 mm 0 m/s 712 mmHg 62%
09:00 +27°C° 0 mm 1 m/s 712 mmHg 57%
10:00 +28°C° 0 mm 1 m/s 712 mmHg 53%
11:00 +29°C° 0 mm 1 m/s 711 mmHg 49%
12:00 +31°C° 0 mm 1 m/s 711 mmHg 46%
13:00 +31°C° 0 mm 1 m/s 711 mmHg 47%
14:00 +30°C° 0 mm 1 m/s 711 mmHg 48%
15:00 +30°C° 0 mm 1 m/s 710 mmHg 49%
16:00 +28°C° 1.2 mm 2 m/s 710 mmHg 62%
17:00 +25°C° 1.2 mm 3 m/s 711 mmHg 76%
18:00 +22°C° 1.2 mm 4 m/s 711 mmHg 89%
19:00 +21°C° 2.7 mm 3 m/s 711 mmHg 91%
20:00 +20°C° 2.7 mm 3 m/s 712 mmHg 94%
21:00 +19°C° 2.7 mm 2 m/s 712 mmHg 96%
22:00 +19°C° 0.6 mm 2 m/s 712 mmHg 96%
23:00 +19°C° 0.6 mm 1 m/s 712 mmHg 95%

Depois de amanhã, 18 Junho, Sexta-feira

Tempo Temperatura Precipitação Vento Pressão Humidade
00:00 +19°C° 0.6 mm 1 m/s 712 mmHg 94%
01:00 +19°C° 0.1 mm 1 m/s 712 mmHg 94%
02:00 +19°C° 0.1 mm 1 m/s 711 mmHg 93%
03:00 +18°C° 0.1 mm 1 m/s 711 mmHg 92%
04:00 +19°C° 0 mm 1 m/s 711 mmHg 91%
05:00 +20°C° 0 mm 1 m/s 711 mmHg 89%
06:00 +21°C° 0 mm 1 m/s 711 mmHg 87%
07:00 +23°C° 0 mm 1 m/s 712 mmHg 79%
08:00 +25°C° 0 mm 1 m/s 712 mmHg 70%
09:00 +27°C° 0 mm 1 m/s 712 mmHg 62%
10:00 +28°C° 0.1 mm 1 m/s 712 mmHg 61%
11:00 +28°C° 0.1 mm 1 m/s 712 mmHg 59%
12:00 +29°C° 0.1 mm 2 m/s 712 mmHg 58%
13:00 +29°C° 0.5 mm 1 m/s 712 mmHg 60%
14:00 +29°C° 0.5 mm 1 m/s 712 mmHg 61%
15:00 +28°C° 0.5 mm 1 m/s 712 mmHg 63%
16:00 +27°C° 0.4 mm 1 m/s 712 mmHg 70%
17:00 +26°C° 0.4 mm 1 m/s 712 mmHg 76%
18:00 +25°C° 0.4 mm 1 m/s 713 mmHg 83%
19:00 +24°C° 0.3 mm 1 m/s 713 mmHg 85%
20:00 +22°C° 0.3 mm 1 m/s 713 mmHg 87%
21:00 +21°C° 0.3 mm 1 m/s 713 mmHg 89%
22:00 +20°C° 0 mm 1 m/s 713 mmHg 89%
23:00 +20°C° 0 mm 1 m/s 713 mmHg 89%

19 Junho, Sábado

Tempo Temperatura Precipitação Vento Pressão Humidade
00:00 +20°C° 0 mm 1 m/s 713 mmHg 90%
01:00 +19°C° 0.2 mm 1 m/s 713 mmHg 90%
02:00 +19°C° 0.2 mm 1 m/s 713 mmHg 91%
03:00 +19°C° 0.2 mm 1 m/s 713 mmHg 92%
04:00 +20°C° 0 mm 1 m/s 713 mmHg 90%
05:00 +21°C° 0 mm 1 m/s 714 mmHg 88%
06:00 +22°C° 0 mm 1 m/s 714 mmHg 86%
07:00 +24°C° 0 mm 1 m/s 714 mmHg 78%
08:00 +26°C° 0 mm 1 m/s 713 mmHg 70%
09:00 +27°C° 0 mm 1 m/s 713 mmHg 61%
10:00 +28°C° 0 mm 1 m/s 713 mmHg 58%
11:00 +29°C° 0 mm 1 m/s 714 mmHg 55%
12:00 +30°C° 0 mm 1 m/s 714 mmHg 52%
13:00 +30°C° 0 mm 1 m/s 713 mmHg 52%
14:00 +31°C° 0 mm 1 m/s 713 mmHg 52%
15:00 +31°C° 0 mm 1 m/s 713 mmHg 52%
16:00 +30°C° 0 mm 1 m/s 712 mmHg 60%
17:00 +29°C° 0 mm 1 m/s 712 mmHg 68%
18:00 +27°C° 0 mm 1 m/s 712 mmHg 76%
19:00 +26°C° 0 mm 1 m/s 711 mmHg 76%
20:00 +25°C° 0 mm 1 m/s 711 mmHg 76%
21:00 +23°C° 0 mm 1 m/s 711 mmHg 76%
22:00 +23°C° 0 mm 1 m/s 711 mmHg 76%
23:00 +23°C° 0 mm 1 m/s 711 mmHg 75%

20 Junho, Domingo

Tempo Temperatura Precipitação Vento Pressão Humidade
00:00 +22°C° 0 mm 1 m/s 711 mmHg 75%
01:00 +22°C° 0 mm 1 m/s 711 mmHg 76%
02:00 +22°C° 0 mm 1 m/s 710 mmHg 77%
03:00 +22°C° 0 mm 1 m/s 710 mmHg 77%
04:00 +23°C° 0 mm 1 m/s 710 mmHg 76%
05:00 +23°C° 0 mm 1 m/s 710 mmHg 76%
06:00 +24°C° 0 mm 1 m/s 710 mmHg 75%
07:00 +24°C° 0 mm 1 m/s 710 mmHg 75%
08:00 +25°C° 0 mm 2 m/s 710 mmHg 75%
09:00 +25°C° 0 mm 2 m/s 711 mmHg 75%
10:00 +25°C° 0.2 mm 2 m/s 710 mmHg 72%
11:00 +26°C° 0.2 mm 2 m/s 710 mmHg 70%
12:00 +27°C° 0.2 mm 2 m/s 710 mmHg 67%
13:00 +27°C° 0.5 mm 2 m/s 709 mmHg 64%
14:00 +28°C° 0.5 mm 2 m/s 709 mmHg 61%
15:00 +29°C° 0.5 mm 3 m/s 708 mmHg 58%
16:00 +27°C° 0.6 mm 2 m/s 709 mmHg 69%
17:00 +25°C° 0.6 mm 2 m/s 709 mmHg 80%
18:00 +23°C° 0.6 mm 1 m/s 709 mmHg 90%
19:00 +22°C° 0.6 mm 1 m/s 709 mmHg 92%
20:00 +21°C° 0.6 mm 1 m/s 709 mmHg 93%
21:00 +20°C° 0.6 mm 1 m/s 710 mmHg 95%
22:00 +20°C° 0.4 mm 1 m/s 710 mmHg 95%
23:00 +19°C° 0.4 mm 1 m/s 709 mmHg 95%

21 Junho, Segunda-feira

Tempo Temperatura Precipitação Vento Pressão Humidade
00:00 +19°C° 0.4 mm 1 m/s 709 mmHg 95%
01:00 +19°C° 0.4 mm 1 m/s 709 mmHg 95%
02:00 +19°C° 0.4 mm 1 m/s 709 mmHg 95%
03:00 +17°C° 0.4 mm 0 m/s 709 mmHg 96%
04:00 +17°C° 0.4 mm 0 m/s 709 mmHg 95%
05:00 +18°C° 0.4 mm 0 m/s 709 mmHg 94%
06:00 +18°C° 0.4 mm 0 m/s 709 mmHg 94%
07:00 +19°C° 0.1 mm 0 m/s 709 mmHg 92%
08:00 +21°C° 0.1 mm 1 m/s 709 mmHg 90%
09:00 +22°C° 0.1 mm 1 m/s 709 mmHg 88%
10:00 +22°C° 0.5 mm 1 m/s 709 mmHg 87%
11:00 +23°C° 0.5 mm 1 m/s 709 mmHg 85%
12:00 +23°C° 0.5 mm 1 m/s 709 mmHg 84%
13:00 +24°C° 1 mm 1 m/s 709 mmHg 82%
14:00 +24°C° 1 mm 1 m/s 709 mmHg 81%
15:00 +24°C° 1 mm 1 m/s 709 mmHg 79%
16:00 +23°C° 2 mm 1 m/s 709 mmHg 84%
17:00 +21°C° 2 mm 2 m/s 709 mmHg 90%
18:00 +19°C° 2 mm 2 m/s 709 mmHg 95%
19:00 +19°C° 1.5 mm 2 m/s 709 mmHg 95%
20:00 +19°C° 1.5 mm 1 m/s 710 mmHg 96%
21:00 +18°C° 1.5 mm 1 m/s 710 mmHg 97%
22:00 +18°C° 0.4 mm 1 m/s 710 mmHg 96%
23:00 +18°C° 0.4 mm 1 m/s 710 mmHg 96%
Mostrar mais